This is the latest recevied weather packets stored in our database for station/object DD6UBW. If no packets are shown the sender has not sent any weather packets the latest 10 day(s).
| Time | Temp. | Humidity | Pressure | Rain* | Wind** | Luminosity | Snow |
|---|---|---|---|---|---|---|---|
| 1787797800 | 14.44° C | 75% | 1019.6 hPa | 0 mm | - | - | - |
| 1787796001 | 15° C | 75% | 1019.6 hPa | 0 mm | - | - | - |
| 1787794201 | 15° C | 74% | 1019.6 hPa | 0 mm | - | - | - |
| 1787792401 | 15.56° C | 74% | 1019.6 hPa | 0 mm | - | - | - |
| 1787790601 | 15.56° C | 74% | 1019.6 hPa | 0 mm | - | - | - |
| 1787788807 | 15.56° C | 73% | 1020.6 hPa | 0 mm | - | - | - |
| 1787787000 | 15.56° C | 73% | 1020.6 hPa | 0 mm | - | - | - |
| 1787785200 | 16.11° C | 72% | 1019.6 hPa | 0 mm | - | - | - |
| 1787783400 | 16.11° C | 71% | 1020.6 hPa | 0 mm | - | - | - |
| 1787781601 | 16.11° C | 69% | 1020.6 hPa | 0 mm | - | - | - |
| 1787779800 | 16.67° C | 68% | 1020.6 hPa | 0 mm | - | - | - |
| 1787778005 | 16.67° C | 67% | 1020.6 hPa | 0 mm | - | - | - |
| 1787776201 | 17.22° C | 65% | 1019.6 hPa | 0 mm | - | - | - |
| 1787774406 | 17.22° C | 64% | 1019.6 hPa | 0 mm | - | - | - |
| 1787772601 | 17.78° C | 63% | 1019.6 hPa | 0 mm | - | - | - |
| 1787770801 | 18.33° C | 61% | 1019.6 hPa | 0 mm | - | - | - |
| 1787769001 | 18.89° C | 59% | 1019.6 hPa | 0 mm | - | - | - |
| 1787767201 | 20.56° C | 53% | 1019.6 hPa | 0 mm | - | - | - |
| 1787765401 | 21.67° C | 50% | 1019.6 hPa | 0 mm | - | - | - |
| 1787763601 | 22.22° C | 48% | 1019.6 hPa | 0 mm | - | - | - |
| 1787761800 | 22.78° C | 49% | 1019.6 hPa | 0 mm | - | - | - |
| 1787760002 | 22.78° C | 50% | 1019.6 hPa | 0 mm | - | - | - |
| 1787758202 | 23.33° C | 49% | 1019.6 hPa | 0 mm | - | - | - |
| 1787756401 | 23.33° C | 48% | 1019.6 hPa | 0 mm | - | - | - |
| 1787754601 | 23.33° C | 47% | 1019.6 hPa | 0 mm | - | - | - |
* Rain since midnight (hover to see other rain measurements)
** Current wind speed in m/s (hover to see current wind gust speed)